#Datum;Uhrzeit;WR;Pac;DaySum;Status;WR;Pac;DaySum;Status;Pdc1;Udc;Temp;WR;Pac;DaySum;Status;Pdc1;Udc;Temp;WR;Pac;DaySum;Status;Pdc1;Udc;Temp;WR;Pac;DaySum;Status;Pdc1;Pdc2;Udc1;Udc2;Temp;WR;Pac;DaySum;Status;Pdc1;Pdc2;Udc1;Udc2;Temp;WR;Pac;DaySum;Status;Pdc1;Udc;Temp;WR;Pac;DaySum;Status;Pdc1;Udc;Temp;WR;Pac;DaySum;Status;Pdc1;Udc;Temp
07.03.20;23:55:00;1;564;13687;0;2;0;11699;0;0;0;0;3;0;7381;0;0;0;0;4;0;10405;0;0;0;0;5;0;23236;0;0;0;0;0;0;6;0;17224;0;0;0;0;0;0;7;0;13845;0;0;0;0;8;0;13738;0;0;0;0;9;0;7456;0;0;0;0
07.03.20;23:50:00;1;407;13629;0;2;0;11699;0;0;0;0;3;0;7381;0;0;0;0;4;0;10405;0;0;0;0;5;0;23236;0;0;0;0;0;0;6;0;17224;0;0;0;0;0;0;7;0;13845;0;0;0;0;8;0;13738;0;0;0;0;9;0;7456;0;0;0;0
07.03.20;23:45:00;1;394;13595;0;2;0;11699;0;0;0;0;3;0;7381;0;0;0;0;4;0;10405;0;0;0;0;5;0;23236;0;0;0;0;0;0;6;0;17224;0;0;0;0;0;0;7;0;13845;0;0;0;0;8;0;13738;0;0;0;0;9;0;7456;0;0;0;0
07.03.20;23:40:00;1;447;13561;0;2;0;11699;0;0;0;0;3;0;7381;0;0;0;0;4;0;10405;0;0;0;0;5;0;23236;0;0;0;0;0;0;6;0;17224;0;0;0;0;0;0;7;0;13845;0;0;0;0;8;0;13738;0;0;0;0;9;0;7456;0;0;0;0
07.03.20;23:35:00;1;429;13525;0;2;0;11699;0;0;0;0;3;0;7381;0;0;0;0;4;0;10405;0;0;0;0;5;0;23236;0;0;0;0;0;0;6;0;17224;0;0;0;0;0;0;7;0;13845;0;0;0;0;8;0;13738;0;0;0;0;9;0;7456;0;0;0;0
07.03.20;23:30:00;1;402;13489;0;2;0;11699;0;0;0;0;3;0;7381;0;0;0;0;4;0;10405;0;0;0;0;5;0;23236;0;0;0;0;0;0;6;0;17224;0;0;0;0;0;0;7;0;13845;0;0;0;0;8;0;13738;0;0;0;0;9;0;7456;0;0;0;0
07.03.20;23:25:00;1;403;13456;0;2;0;11699;0;0;0;0;3;0;7381;0;0;0;0;4;0;10405;0;0;0;0;5;0;23236;0;0;0;0;0;0;6;0;17224;0;0;0;0;0;0;7;0;13845;0;0;0;0;8;0;13738;0;0;0;0;9;0;7456;0;0;0;0
07.03.20;23:20:00;1;431;13422;0;2;0;11699;0;0;0;0;3;0;7381;0;0;0;0;4;0;10405;0;0;0;0;5;0;23236;0;0;0;0;0;0;6;0;17224;0;0;0;0;0;0;7;0;13845;0;0;0;0;8;0;13738;0;0;0;0;9;0;7456;0;0;0;0
07.03.20;23:15:00;1;476;13386;0;2;0;11699;0;0;0;0;3;0;7381;0;0;0;0;4;0;10405;0;0;0;0;5;0;23236;0;0;0;0;0;0;6;0;17224;0;0;0;0;0;0;7;0;13845;0;0;0;0;8;0;13738;0;0;0;0;9;0;7456;0;0;0;0
07.03.20;23:10:00;1;536;13346;0;2;0;11699;0;0;0;0;3;0;7381;0;0;0;0;4;0;10405;0;0;0;0;5;0;23236;0;0;0;0;0;0;6;0;17224;0;0;0;0;0;0;7;0;13845;0;0;0;0;8;0;13738;0;0;0;0;9;0;7456;0;0;0;0
07.03.20;23:05:00;1;577;13300;0;2;0;11699;0;0;0;0;3;0;7381;0;0;0;0;4;0;10405;0;0;0;0;5;0;23236;0;0;0;0;0;0;6;0;17224;0;0;0;0;0;0;7;0;13845;0;0;0;0;8;0;13738;0;0;0;0;9;0;7456;0;0;0;0
07.03.20;23:00:00;1;462;13259;0;2;0;11699;0;0;0;0;3;0;7381;0;0;0;0;4;0;10405;0;0;0;0;5;0;23236;0;0;0;0;0;0;6;0;17224;0;0;0;0;0;0;7;0;13845;0;0;0;0;8;0;13738;0;0;0;0;9;0;7456;0;0;0;0
07.03.20;22:55:00;1;462;13220;0;2;0;11699;0;0;0;0;3;0;7381;0;0;0;0;4;0;10405;0;0;0;0;5;0;23236;2;0;0;0;0;0;6;0;17224;2;0;0;0;0;0;7;0;13845;0;0;0;0;8;0;13738;0;0;0;0;9;0;7456;0;0;0;0
07.03.20;22:50:00;1;1055;13163;0;2;0;11699;0;0;0;0;3;0;7381;0;0;0;0;4;0;10405;0;0;0;0;5;0;23236;2;0;0;0;0;0;6;0;17224;2;0;0;0;0;0;7;0;13845;0;0;0;0;8;0;13738;0;0;0;0;9;0;7456;0;0;0;0
07.03.20;22:45:00;1;464;13120;0;2;0;11699;0;0;0;0;3;0;7381;0;0;0;0;4;0;10405;0;0;0;0;5;0;23236;2;0;0;0;0;0;6;0;17224;2;0;0;0;0;0;7;0;13845;0;0;0;0;8;0;13738;0;0;0;0;9;0;7456;0;0;0;0
07.03.20;22:40:00;1;429;13080;0;2;0;11699;0;0;0;0;3;0;7381;0;0;0;0;4;0;10405;0;0;0;0;5;0;23236;2;0;0;0;0;0;6;0;17224;2;0;0;0;0;0;7;0;13845;0;0;0;0;8;0;13738;0;0;0;0;9;0;7456;0;0;0;0
07.03.20;22:35:00;1;447;13043;0;2;0;11699;0;0;0;0;3;0;7381;0;0;0;0;4;0;10405;0;0;0;0;5;0;23236;2;0;0;0;0;0;6;0;17224;2;0;0;0;0;0;7;0;13845;0;0;0;0;8;0;13738;0;0;0;0;9;0;7456;0;0;0;0
07.03.20;22:30:00;1;436;13005;0;2;0;11699;0;0;0;0;3;0;7381;0;0;0;0;4;0;10405;0;0;0;0;5;0;23236;2;0;0;0;0;0;6;0;17224;2;0;0;0;0;0;7;0;13845;0;0;0;0;8;0;13738;0;0;0;0;9;0;7456;0;0;0;0
07.03.20;22:25:00;1;445;12969;0;2;0;11699;0;0;0;0;3;0;7381;0;0;0;0;4;0;10405;0;0;0;0;5;0;23236;2;0;0;0;0;0;6;0;17224;2;0;0;0;0;0;7;0;13845;0;0;0;0;8;0;13738;0;0;0;0;9;0;7456;0;0;0;0
07.03.20;22:20:00;1;421;12932;0;2;0;11699;0;0;0;0;3;0;7381;0;0;0;0;4;0;10405;0;0;0;0;5;0;23236;2;0;0;0;0;0;6;0;17224;2;0;0;0;0;0;7;0;13845;0;0;0;0;8;0;13738;0;0;0;0;9;0;7456;0;0;0;0
07.03.20;22:15:00;1;400;12896;0;2;0;11699;0;0;0;0;3;0;7381;0;0;0;0;4;0;10405;0;0;0;0;5;0;23236;2;0;0;0;0;0;6;0;17224;2;0;0;0;0;0;7;0;13845;0;0;0;0;8;0;13738;0;0;0;0;9;0;7456;0;0;0;0
07.03.20;22:10:00;1;1071;12863;0;2;0;11699;0;0;0;0;3;0;7381;0;0;0;0;4;0;10405;0;0;0;0;5;0;23236;2;0;0;0;0;0;6;0;17224;2;0;0;0;0;0;7;0;13845;0;0;0;0;8;0;13738;0;0;0;0;9;0;7456;0;0;0;0
07.03.20;22:05:00;1;452;12806;0;2;0;11699;0;0;0;0;3;0;7381;0;0;0;0;4;0;10405;0;0;0;0;5;0;23236;2;0;0;0;0;0;6;0;17224;2;0;0;0;0;0;7;0;13845;0;0;0;0;8;0;13738;0;0;0;0;9;0;7456;0;0;0;0
07.03.20;22:00:00;1;406;12769;0;2;0;11699;0;0;0;0;3;0;7381;0;0;0;0;4;0;10405;0;0;0;0;5;0;23236;2;0;0;0;0;0;6;0;17224;2;0;0;0;0;0;7;0;13845;0;0;0;0;8;0;13738;0;0;0;0;9;0;7456;0;0;0;0
07.03.20;21:55:00;1;403;12735;0;2;0;11699;0;0;0;0;3;0;7381;0;0;0;0;4;0;10405;0;0;0;0;5;0;23236;2;0;0;0;0;0;6;0;17224;2;0;0;0;0;0;7;0;13845;0;0;0;0;8;0;13738;0;0;0;0;9;0;7456;0;0;0;0
07.03.20;21:50:00;1;410;12701;0;2;0;11699;0;0;0;0;3;0;7381;0;0;0;0;4;0;10405;0;0;0;0;5;0;23236;2;0;0;0;0;0;6;0;17224;2;0;0;0;0;0;7;0;13845;0;0;0;0;8;0;13738;0;0;0;0;9;0;7456;0;0;0;0
07.03.20;21:45:00;1;452;12667;0;2;0;11699;0;0;0;0;3;0;7381;0;0;0;0;4;0;10405;0;0;0;0;5;0;23236;2;0;0;0;0;0;6;0;17224;2;0;0;0;0;0;7;0;13845;0;0;0;0;8;0;13738;0;0;0;0;9;0;7456;0;0;0;0
07.03.20;21:40:00;1;454;12629;0;2;0;11699;0;0;0;0;3;0;7381;0;0;0;0;4;0;10405;0;0;0;0;5;0;23236;2;0;0;0;0;0;6;0;17224;2;0;0;0;0;0;7;0;13845;0;0;0;0;8;0;13738;0;0;0;0;9;0;7456;0;0;0;0
07.03.20;21:35:00;1;528;12591;0;2;0;11699;0;0;0;0;3;0;7381;0;0;0;0;4;0;10405;0;0;0;0;5;0;23236;2;0;0;0;0;0;6;0;17224;2;0;0;0;0;0;7;0;13845;0;0;0;0;8;0;13738;0;0;0;0;9;0;7456;0;0;0;0
07.03.20;21:30:00;1;411;12548;0;2;0;11699;0;0;0;0;3;0;7381;0;0;0;0;4;0;10405;0;0;0;0;5;0;23236;2;0;0;0;0;0;6;0;17224;2;0;0;0;0;0;7;0;13845;0;0;0;0;8;0;13738;0;0;0;0;9;0;7456;0;0;0;0
07.03.20;21:25:00;1;421;12514;0;2;0;11699;0;0;0;0;3;0;7381;0;0;0;0;4;0;10405;0;0;0;0;5;0;23236;2;0;0;0;0;0;6;0;17224;2;0;0;0;0;0;7;0;13845;0;0;0;0;8;0;13738;0;0;0;0;9;0;7456;0;0;0;0
07.03.20;21:20:00;1;438;12478;0;2;0;11699;0;0;0;0;3;0;7381;0;0;0;0;4;0;10405;0;0;0;0;5;0;23236;2;0;0;0;0;0;6;0;17224;2;0;0;0;0;0;7;0;13845;0;0;0;0;8;0;13738;0;0;0;0;9;0;7456;0;0;0;0
07.03.20;21:15:00;1;492;12442;0;2;0;11699;0;0;0;0;3;0;7381;0;0;0;0;4;0;10405;0;0;0;0;5;0;23236;2;0;0;0;0;0;6;0;17224;2;0;0;0;0;0;7;0;13845;0;0;0;0;8;0;13738;0;0;0;0;9;0;7456;0;0;0;0
07.03.20;21:10:00;1;477;12399;0;2;0;11699;0;0;0;0;3;0;7381;0;0;0;0;4;0;10405;0;0;0;0;5;0;23236;2;0;0;0;0;0;6;0;17224;2;0;0;0;0;0;7;0;13845;0;0;0;0;8;0;13738;0;0;0;0;9;0;7456;0;0;0;0
07.03.20;21:05:00;1;520;12360;0;2;0;11699;0;0;0;0;3;0;7381;0;0;0;0;4;0;10405;0;0;0;0;5;0;23236;2;0;0;0;0;0;6;0;17224;2;0;0;0;0;0;7;0;13845;0;0;0;0;8;0;13738;0;0;0;0;9;0;7456;0;0;0;0
07.03.20;21:00:00;1;504;12315;0;2;0;11699;0;0;0;0;3;0;7381;0;0;0;0;4;0;10405;0;0;0;0;5;0;23236;2;0;0;0;0;0;6;0;17224;2;0;0;0;0;0;7;0;13845;0;0;0;0;8;0;13738;0;0;0;0;9;0;7456;0;0;0;0
07.03.20;20:55:00;1;595;12272;0;2;0;11699;0;0;0;0;3;0;7381;0;0;0;0;4;0;10405;0;0;0;0;5;0;23236;2;0;0;0;0;0;6;0;17224;2;0;0;0;0;0;7;0;13845;0;0;0;0;8;0;13738;0;0;0;0;9;0;7456;0;0;0;0
07.03.20;20:50:00;1;617;12222;0;2;0;11699;0;0;0;0;3;0;7381;0;0;0;0;4;0;10405;0;0;0;0;5;0;23236;2;0;0;0;0;0;6;0;17224;2;0;0;0;0;0;7;0;13845;0;0;0;0;8;0;13738;0;0;0;0;9;0;7456;0;0;0;0
07.03.20;20:45:00;1;726;12169;0;2;0;11699;0;0;0;0;3;0;7381;0;0;0;0;4;0;10405;0;0;0;0;5;0;23236;2;0;0;0;0;0;6;0;17224;2;0;0;0;0;0;7;0;13845;0;0;0;0;8;0;13738;0;0;0;0;9;0;7456;0;0;0;0
07.03.20;20:40:00;1;650;12108;0;2;0;11699;0;0;0;0;3;0;7381;0;0;0;0;4;0;10405;0;0;0;0;5;0;23236;2;0;0;0;0;0;6;0;17224;2;0;0;0;0;0;7;0;13845;0;0;0;0;8;0;13738;0;0;0;0;9;0;7456;0;0;0;0
07.03.20;20:35:00;1;651;12055;0;2;0;11699;0;0;0;0;3;0;7381;0;0;0;0;4;0;10405;0;0;0;0;5;0;23236;2;0;0;0;0;0;6;0;17224;2;0;0;0;0;0;7;0;13845;0;0;0;0;8;0;13738;0;0;0;0;9;0;7456;0;0;0;0
07.03.20;20:30:00;1;937;12000;0;2;0;11699;0;0;0;0;3;0;7381;0;0;0;0;4;0;10405;0;0;0;0;5;0;23236;2;0;0;0;0;0;6;0;17224;2;0;0;0;0;0;7;0;13845;0;0;0;0;8;0;13738;0;0;0;0;9;0;7456;0;0;0;0
07.03.20;20:25:00;1;622;11924;0;2;0;11699;0;0;0;0;3;0;7381;0;0;0;0;4;0;10405;0;0;0;0;5;0;23236;2;0;0;0;0;0;6;0;17224;2;0;0;0;0;0;7;0;13845;0;0;0;0;8;0;13738;0;0;0;0;9;0;7456;0;0;0;0
07.03.20;20:20:00;1;585;11872;0;2;0;11699;0;0;0;0;3;0;7381;0;0;0;0;4;0;10405;0;0;0;0;5;0;23236;2;0;0;0;0;0;6;0;17224;2;0;0;0;0;0;7;0;13845;0;0;0;0;8;0;13738;0;0;0;0;9;0;7456;0;0;0;0
07.03.20;20:15:00;1;451;11825;0;2;0;11699;0;0;0;0;3;0;7381;0;0;0;0;4;0;10405;0;0;0;0;5;0;23236;2;0;0;0;0;0;6;0;17224;2;0;0;0;0;0;7;0;13845;0;0;0;0;8;0;13738;0;0;0;0;9;0;7456;0;0;0;0
07.03.20;20:10:00;1;494;11787;0;2;0;11699;0;0;0;0;3;0;7381;0;0;0;0;4;0;10405;0;0;0;0;5;0;23236;2;0;0;0;0;0;6;0;17224;2;0;0;0;0;0;7;0;13845;0;0;0;0;8;0;13738;0;0;0;0;9;0;7456;0;0;0;0
07.03.20;20:05:00;1;497;11746;0;2;0;11699;0;0;0;0;3;0;7381;0;0;0;0;4;0;10405;0;0;0;0;5;0;23236;2;0;0;0;0;0;6;0;17224;2;0;0;0;0;0;7;0;13845;0;0;0;0;8;0;13738;0;0;0;0;9;0;7456;0;0;0;0
07.03.20;20:00:00;1;531;11701;0;2;0;11699;0;0;0;0;3;0;7381;0;0;0;0;4;0;10405;0;0;0;0;5;0;23236;2;0;0;0;0;0;6;0;17224;2;0;0;0;0;0;7;0;13845;0;0;0;0;8;0;13738;0;0;0;0;9;0;7456;0;0;0;0
07.03.20;19:55:00;1;455;11658;0;2;0;11699;0;0;0;0;3;0;7381;0;0;0;0;4;0;10405;0;0;0;0;5;0;23236;2;0;0;0;0;0;6;0;17224;2;0;0;0;0;0;7;0;13845;0;0;0;0;8;0;13738;0;0;0;0;9;0;7456;0;0;0;0
07.03.20;19:50:00;1;451;11620;0;2;0;11699;0;0;0;0;3;0;7381;0;0;0;0;4;0;10405;0;0;0;0;5;0;23236;2;0;0;0;0;0;6;0;17224;2;0;0;0;0;0;7;0;13845;0;0;0;0;8;0;13738;0;0;0;0;9;0;7456;0;0;0;0
07.03.20;19:45:00;1;453;11582;0;2;0;11699;0;0;0;0;3;0;7381;0;0;0;0;4;0;10405;0;0;0;0;5;0;23236;2;0;0;0;0;0;6;0;17224;2;0;0;0;0;0;7;0;13845;0;0;0;0;8;0;13738;0;0;0;0;9;0;7456;0;0;0;0
07.03.20;19:40:00;1;449;11544;0;2;0;11699;0;0;0;0;3;0;7381;0;0;0;0;4;0;10405;0;0;0;0;5;0;23236;2;0;0;0;0;0;6;0;17224;2;0;0;0;0;0;7;0;13845;0;0;0;0;8;0;13738;0;0;0;0;9;0;7456;0;0;0;0
07.03.20;19:35:00;1;484;11507;0;2;0;11699;0;0;0;0;3;0;7381;0;0;0;0;4;0;10405;0;0;0;0;5;0;23236;2;0;0;0;0;0;6;0;17224;2;0;0;0;0;0;7;0;13845;0;0;0;0;8;0;13738;0;0;0;0;9;0;7456;0;0;0;0
07.03.20;19:30:00;1;470;11467;0;2;0;11699;0;0;0;0;3;0;7381;0;0;0;0;4;0;10405;0;0;0;0;5;0;23236;2;0;0;0;0;0;6;0;17224;2;0;0;0;0;0;7;0;13845;0;0;0;0;8;0;13738;0;0;0;0;9;0;7456;0;0;0;0
07.03.20;19:25:00;1;461;11427;0;2;0;11699;0;0;0;0;3;0;7381;0;0;0;0;4;0;10405;0;0;0;0;5;0;23236;2;0;0;0;0;0;6;0;17224;2;0;0;0;0;0;7;0;13845;0;0;0;0;8;0;13738;0;0;0;0;9;0;7456;0;0;0;0
07.03.20;19:20:00;1;547;11388;0;2;0;11699;0;0;0;0;3;0;7381;0;0;0;0;4;0;10405;0;0;0;0;5;0;23236;2;0;0;0;0;0;6;0;17224;2;0;0;0;0;0;7;0;13845;0;0;0;0;8;0;13738;0;0;0;0;9;0;7456;0;0;0;0
07.03.20;19:15:00;1;557;11342;0;2;0;11699;0;0;0;0;3;0;7381;0;0;0;0;4;0;10405;0;0;0;0;5;0;23236;2;0;0;0;0;0;6;0;17224;2;0;0;0;0;0;7;0;13845;0;0;0;0;8;0;13738;0;0;0;0;9;0;7456;0;0;0;0
07.03.20;19:10:00;1;1128;11296;0;2;0;11699;0;0;0;0;3;0;7381;0;0;0;0;4;0;10405;0;0;0;0;5;0;23236;2;0;0;0;0;0;6;0;17224;2;0;0;0;0;0;7;0;13845;0;0;0;0;8;0;13738;0;0;0;0;9;0;7456;0;0;0;0
07.03.20;19:05:00;1;535;11227;0;2;0;11699;0;0;0;0;3;0;7381;0;0;0;0;4;0;10405;0;0;0;0;5;0;23236;2;0;0;0;0;0;6;0;17224;2;0;0;0;0;0;7;0;13845;0;0;0;0;8;0;13738;0;0;0;0;9;0;7456;0;0;0;0
07.03.20;19:00:00;1;538;11181;0;2;0;11699;0;0;0;0;3;0;7381;0;0;0;0;4;0;10405;0;0;0;0;5;0;23236;2;0;0;0;0;0;6;0;17224;2;0;0;0;0;0;7;0;13845;0;0;0;0;8;0;13738;0;0;0;0;9;0;7456;0;0;0;0
07.03.20;18:55:00;1;502;11136;0;2;0;11699;0;0;0;0;3;0;7381;0;0;0;0;4;0;10405;0;0;0;0;5;0;23236;2;0;0;0;0;0;6;0;17224;2;0;0;0;0;0;7;0;13845;0;0;0;0;8;0;13738;0;0;0;0;9;0;7456;0;0;0;0
07.03.20;18:50:00;1;493;11094;0;2;0;11699;0;0;0;0;3;0;7381;0;0;0;0;4;0;10405;0;0;0;0;5;0;23236;2;0;0;0;0;0;6;0;17224;2;0;0;0;0;0;7;0;13845;0;0;0;0;8;0;13738;0;0;0;0;9;0;7456;0;0;0;0
07.03.20;18:45:00;1;466;11053;0;2;0;11699;0;0;0;0;3;0;7381;0;0;0;0;4;0;10405;0;0;0;0;5;0;23236;2;0;0;0;0;0;6;0;17224;2;0;0;0;0;0;7;0;13845;0;0;0;0;8;0;13738;0;0;0;0;9;0;7456;0;0;0;0
07.03.20;18:40:00;1;437;11014;0;2;0;11699;0;0;0;0;3;0;7381;0;0;0;0;4;0;10405;0;0;0;0;5;0;23236;2;0;0;0;0;0;6;0;17224;2;0;0;0;0;0;7;0;13845;0;0;0;0;8;0;13738;0;0;0;0;9;0;7456;0;0;0;0
07.03.20;18:35:00;1;490;10977;0;2;0;11699;0;0;0;0;3;0;7381;0;0;0;0;4;0;10405;0;0;0;0;5;0;23236;2;0;0;0;0;0;6;0;17224;2;0;0;0;0;0;7;0;13845;0;0;0;0;8;0;13738;0;0;0;0;9;0;7456;0;0;0;0
07.03.20;18:30:00;1;495;10936;0;2;0;11699;0;0;0;0;3;0;7381;0;0;0;0;4;0;10405;0;0;0;0;5;0;23236;2;0;0;0;0;0;6;0;17224;2;0;0;0;0;0;7;0;13845;0;0;0;0;8;0;13738;0;0;0;0;9;0;7456;0;0;0;0
07.03.20;18:25:00;1;462;10893;0;2;0;11699;0;0;0;0;3;0;7381;0;0;0;0;4;0;10405;0;0;0;0;5;0;23236;2;0;0;0;0;0;6;0;17224;2;0;0;0;0;0;7;0;13845;0;0;0;0;8;0;13738;0;0;0;0;9;0;7456;0;0;0;0
07.03.20;18:20:00;1;428;10855;0;2;0;11699;0;0;72;3;3;0;7381;0;0;192;10;4;0;10405;0;0;0;0;5;0;23236;2;0;0;0;0;0;6;0;17224;2;0;0;0;0;0;7;0;13845;0;0;0;0;8;0;13738;0;0;0;0;9;0;7456;0;0;0;0
07.03.20;18:15:00;1;431;10819;0;2;0;11699;6;0;281;12;3;0;7381;6;0;310;15;4;0;10405;0;0;43;8;5;0;23236;2;0;0;0;0;0;6;0;17224;2;0;0;0;0;0;7;0;13845;0;0;0;0;8;0;13738;0;0;0;0;9;0;7456;0;0;0;0
07.03.20;18:10:00;1;429;10783;0;2;0;11699;6;0;342;13;3;0;7381;6;2;402;16;4;0;10405;1;0;118;13;5;0;23236;1;0;9;294;307;23;6;0;17224;0;6;1;143;314;17;7;0;13845;0;0;214;12;8;0;13738;0;0;216;12;9;0;7456;0;0;235;9
07.03.20;18:05:00;1;455;10747;0;2;0;11699;6;0;364;13;3;0;7381;6;2;431;16;4;0;10405;1;0;149;13;5;0;23236;23;0;0;387;435;24;6;0;17224;23;8;2;181;506;22;7;0;13845;6;0;317;16;8;0;13738;6;0;321;16;9;0;7456;6;0;337;12
07.03.20;18:00:00;1;542;10709;0;2;0;11699;6;0;376;13;3;0;7381;6;2;438;16;4;0;10405;1;0;169;13;5;5;23236;26;0;0;399;571;24;6;0;17224;23;3;1;239;536;22;7;0;13845;6;0;357;17;8;0;13738;6;0;361;16;9;0;7456;6;0;189;6
07.03.20;17:55:00;1;478;10668;0;2;0;11699;6;0;396;14;3;1;7381;6;3;475;16;4;0;10405;1;0;208;14;5;0;23235;23;0;0;423;666;25;6;0;17224;23;3;2;332;572;23;7;0;13845;6;0;405;17;8;0;13738;6;0;409;16;9;0;7456;0;0;283;7
07.03.20;17:50:00;1;705;10628;0;2;0;11699;6;0;422;14;3;1;7381;6;6;511;16;4;2;10405;3;2;206;14;5;91;23234;4;25;21;379;604;26;6;0;17224;23;2;11;580;596;23;7;0;13845;6;0;390;13;8;0;13738;6;5;464;17;9;1;7456;6;11;477;12
07.03.20;17:45:00;1;1469;10558;0;2;38;11699;4;63;374;14;3;3;7381;6;9;528;17;4;12;10405;3;13;200;14;5;127;23226;4;46;39;379;604;26;6;23;17224;4;23;19;362;371;24;7;0;13845;6;0;509;17;8;0;13738;6;0;510;17;9;2;7456;6;8;307;7
07.03.20;17:40:00;1;1312;10456;0;2;14;11696;6;27;403;14;3;6;7381;4;17;485;17;4;6;10404;3;6;200;15;5;113;23216;4;38;38;379;604;26;6;42;17222;1;26;16;484;304;24;7;7;13845;3;12;277;10;8;8;13738;3;21;454;17;9;1;7455;6;6;306;7
07.03.20;17:35:00;1;535;10352;0;2;33;11695;6;60;378;15;3;7;7380;3;19;496;17;4;7;10403;3;7;200;15;5;126;23206;4;45;38;379;604;26;6;63;17219;4;49;26;448;230;25;7;8;13844;0;11;375;14;8;7;13737;6;14;476;17;9;1;7455;6;6;525;13
07.03.20;17:30:00;1;625;10306;0;2;46;11692;4;82;377;15;3;4;7380;6;9;529;17;4;13;10402;3;13;199;15;5;141;23195;4;50;49;379;604;26;6;71;17213;4;43;24;448;230;25;7;15;13841;0;27;144;7;8;41;13736;4;74;361;18;9;0;7455;6;0;453;10
07.03.20;17:25:00;1;666;10255;0;2;83;11688;4;119;366;16;3;19;7379;6;32;513;17;4;39;10401;3;41;198;15;5;187;23183;4;79;67;379;604;26;6;91;17207;4;56;33;448;230;25;7;72;13839;4;109;444;18;8;24;13733;4;36;179;7;9;4;7455;4;9;549;13
07.03.20;17:20:00;1;623;10200;0;2;87;11682;4;122;373;16;3;8;7378;6;13;546;18;4;41;10398;3;43;198;15;5;187;23167;4;77;67;379;604;26;6;92;17200;4;66;37;448;230;25;7;67;13833;4;112;438;18;8;74;13727;4;109;452;18;9;11;7454;6;20;526;14
07.03.20;17:15:00;1;1839;10148;0;2;114;11674;4;149;379;16;3;52;7377;6;83;495;18;4;58;10395;3;60;198;15;5;220;23152;4;98;81;379;604;26;6;106;17192;4;71;38;448;230;25;7;112;13828;4;138;453;18;8;101;13721;4;141;443;18;9;24;7453;6;35;528;14
07.03.20;17:10:00;1;2384;9992;0;2;117;11665;4;152;373;16;3;62;7373;4;103;468;18;4;61;10390;3;64;198;16;5;219;23133;4;96;81;379;604;26;6;107;17183;4;80;45;448;230;25;7;92;13818;4;134;456;18;8;96;13713;4;132;464;18;9;8;7451;6;13;424;11
07.03.20;17:05:00;1;2192;9796;0;2;123;11655;4;159;377;16;3;66;7367;4;107;481;19;4;70;10384;3;73;203;16;5;268;23115;4;120;101;379;604;26;6;131;17174;4;102;55;448;230;25;7;113;13810;4;154;455;18;8;118;13704;4;156;449;18;9;27;7451;6;41;552;14
07.03.20;17:00:00;1;1738;9615;0;2;210;11644;4;248;378;17;3;123;7362;4;165;505;19;4;153;10378;5;159;228;16;5;416;23091;4;197;172;389;604;26;6;201;17162;4;159;88;448;230;25;7;251;13801;4;287;461;19;8;207;13694;4;238;393;15;9;128;7448;4;161;518;15
07.03.20;16:55:00;1;1852;9489;0;2;248;11627;4;289;391;17;3;147;7352;4;189;513;19;4;187;10366;5;194;227;16;5;471;23055;4;226;188;405;604;26;6;223;17145;4;139;75;448;230;25;7;286;13780;4;337;480;19;8;296;13674;4;341;476;18;9;161;7438;4;196;521;15
07.03.20;16:50:00;1;1813;9333;0;2;228;11606;4;270;385;17;3;135;7339;4;175;508;19;4;175;10350;5;182;228;16;5;461;23016;4;216;189;396;609;26;6;219;17126;4;161;85;448;230;25;7;214;13756;4;262;469;19;8;217;13649;4;256;470;19;9;117;7424;4;150;503;15
07.03.20;16:45:00;1;1719;9183;0;2;213;11587;4;255;379;18;3;128;7328;4;171;504;19;4;158;10335;5;164;232;16;5;433;22977;4;210;179;391;610;27;6;210;17108;4;130;72;449;230;25;7;190;13738;4;220;465;19;8;181;13631;4;221;472;19;9;50;7414;4;63;545;15
07.03.20;16:40:00;1;1737;9040;0;2;192;11569;4;230;384;18;3;111;7317;4;151;494;19;4;130;10322;5;135;224;17;5;398;22943;4;187;161;388;604;27;6;202;17091;4;129;76;448;261;25;7;188;13722;4;224;453;19;8;180;13615;4;219;469;19;9;84;7410;6;112;522;16
07.03.20;16:35:00;1;1825;8895;0;2;185;11553;4;224;379;18;3;103;7308;4;145;501;20;4;132;10311;3;137;220;17;5;415;22910;4;197;165;397;615;27;6;286;17074;4;127;135;518;498;25;7;162;13707;4;188;359;15;8;184;13601;4;223;464;19;9;92;7403;4;126;501;16
07.03.20;16:30:00;1;700;8745;0;2;358;11538;4;405;394;19;3;217;7300;4;262;510;20;4;291;10300;5;303;235;17;5;769;22873;4;384;321;411;645;27;6;579;17047;4;304;316;587;563;25;7;389;13690;4;425;461;20;8;375;13586;4;415;463;19;9;196;7395;4;234;517;17
07.03.20;16:25:00;1;463;8687;0;2;575;11508;4;631;401;19;3;355;7282;4;407;509;21;4;469;10276;5;488;237;18;5;1088;22807;4;553;458;413;677;27;6;812;16999;4;415;414;596;574;25;7;378;13658;4;402;288;12;8;582;13555;4;622;475;19;9;297;7379;4;342;536;17
07.03.20;16:20:00;1;418;8649;0;2;1275;11461;4;1352;405;20;3;726;7252;4;795;545;21;4;1051;10237;5;1095;250;18;5;2010;22713;4;1061;874;433;706;27;6;1498;16928;4;803;779;606;572;25;7;1239;13610;4;1303;492;20;8;1187;13506;4;1257;484;20;9;606;7354;4;664;531;17
07.03.20;16:15:00;1;421;8615;0;2;948;11358;4;1010;398;19;3;572;7193;4;631;506;21;4;790;10153;5;822;245;18;5;1441;22542;4;725;609;433;708;27;6;1107;16801;4;545;543;590;584;25;7;841;13509;4;893;385;16;8;1133;13410;4;1198;476;20;9;606;7305;4;665;520;17
07.03.20;16:10:00;1;400;8580;0;2;470;11277;4;522;405;19;3;291;7145;4;339;516;21;4;376;10085;5;391;238;18;5;905;22432;4;458;380;417;682;27;6;674;16716;4;325;336;595;577;26;7;451;13411;4;502;464;20;8;456;13314;4;494;473;20;9;231;7254;4;269;513;17
07.03.20;16:05:00;1;431;8546;0;2;562;11238;4;616;405;20;3;345;7120;4;398;517;21;4;456;10054;5;475;240;18;5;1046;22356;4;536;444;421;682;27;6;796;16659;4;406;401;590;571;26;7;549;13373;4;590;468;20;8;535;13276;4;585;475;20;9;275;7234;4;318;529;17
07.03.20;16:00:00;1;447;8510;0;2;684;11191;4;739;403;20;3;426;7092;4;483;519;21;4;564;10015;5;587;244;19;5;1272;22265;4;646;540;423;691;28;6;960;16590;4;497;493;598;573;26;7;670;13327;4;723;484;20;8;665;13231;4;716;474;20;9;349;7212;4;394;525;18
07.03.20;15:55:00;1;364;8477;0;2;853;11133;4;916;416;21;3;536;7056;4;596;520;21;4;710;9968;5;740;246;19;5;1506;22157;4;780;647;433;690;28;6;1151;16508;4;565;562;605;576;26;7;799;13272;4;850;488;21;8;798;13177;4;846;473;20;9;422;7183;4;469;529;18
07.03.20;15:50:00;1;364;8447;0;2;583;11063;4;637;404;21;3;366;7012;4;419;507;22;4;483;9910;5;503;241;19;5;1081;22033;4;550;453;422;699;28;6;832;16414;4;432;439;598;574;26;7;648;13205;4;691;473;21;8;640;13109;4;697;481;21;9;295;7147;4;334;440;15
07.03.20;15:45:00;1;1358;8415;0;2;585;11014;4;640;406;21;3;357;6981;4;412;520;22;4;494;9869;5;514;242;19;5;1192;21945;4;602;506;417;679;28;6;899;16347;4;454;457;597;572;26;7;629;13150;4;675;486;21;8;617;13056;4;667;478;21;9;323;7118;4;368;525;18
07.03.20;15:40:00;1;376;8303;0;2;781;10965;4;843;409;22;3;489;6951;4;547;516;22;4;665;9827;5;693;242;20;5;1551;21841;4;803;661;421;710;28;6;1178;16269;4;601;598;606;578;26;7;797;13098;4;847;477;21;8;787;13004;4;844;470;21;9;425;7092;4;477;529;19
07.03.20;15:35:00;1;2232;8271;0;2;660;10900;4;720;411;22;3;415;6910;4;467;520;22;4;563;9772;5;586;242;20;5;1333;21712;4;678;562;422;694;28;6;998;16171;4;495;499;604;572;26;7;739;13031;4;800;483;22;8;738;12938;4;788;480;21;9;393;7056;4;441;536;19
07.03.20;15:30:00;1;2425;8084;0;2;920;10844;4;988;411;23;3;586;6875;4;647;529;23;4;793;9724;5;826;246;21;5;1715;21598;4;890;744;429;698;29;6;1307;16085;4;675;661;604;578;26;7;888;12968;4;946;406;18;8;1072;12875;4;1136;493;22;9;583;7022;4;639;538;19
07.03.20;15:25:00;1;942;7915;0;2;794;10767;4;857;413;23;3;498;6826;4;556;515;23;4;675;9658;5;703;249;21;5;1502;21455;4;772;643;428;682;29;6;1131;15977;4;572;567;602;578;26;7;879;12880;4;946;470;22;8;886;12786;4;949;480;22;9;472;6973;4;525;528;20
07.03.20;15:20:00;1;557;7852;0;2;804;10700;4;868;410;24;3;505;6784;4;562;516;23;4;688;9601;5;717;245;22;5;1553;21330;4;795;662;421;699;29;6;1176;15882;4;596;587;604;575;27;7;839;12806;4;904;478;23;8;841;12711;4;901;477;22;9;453;6934;4;504;522;20
07.03.20;15:15:00;1;598;7805;0;2;891;10633;4;958;408;25;3;560;6742;4;619;525;24;4;763;9544;5;795;246;22;5;1764;21200;4;919;756;431;691;30;6;1334;15783;4;707;693;600;574;27;7;869;12736;4;922;475;23;8;865;12641;4;921;473;23;9;464;6896;4;516;533;20
07.03.20;15:10:00;1;580;7754;0;2;1171;10559;4;1248;413;26;3;737;6695;4;806;533;24;4;1002;9481;5;1044;242;23;5;2191;21052;4;1160;943;429;706;30;6;1657;15671;4;859;834;609;581;27;7;1099;12664;4;1169;488;24;8;1095;12569;4;1163;477;23;9;480;6857;4;529;448;17
07.03.20;15:05:00;1;580;7706;0;2;1160;10463;4;1239;413;27;3;739;6635;4;809;528;25;4;997;9398;5;1039;248;23;5;2175;20867;4;1157;944;430;701;30;6;1672;15531;4;869;845;609;579;27;7;1192;12573;4;1266;480;24;8;1196;12479;4;1268;473;24;9;650;6810;4;711;536;22
07.03.20;15:00:00;1;595;7655;0;2;1355;10366;4;1443;417;28;3;860;6573;4;935;537;25;4;1177;9315;5;1226;245;24;5;2579;20687;4;1379;1117;425;707;30;6;1959;15393;4;1001;976;607;586;27;7;1472;12474;4;1558;489;24;8;1450;12379;4;1528;486;24;9;780;6756;4;847;536;22
07.03.20;14:55:00;1;516;7606;0;2;1933;10254;4;2044;411;29;3;1227;6502;4;1313;544;26;4;1711;9218;5;1783;249;25;5;3546;20465;4;1893;1564;434;707;30;6;2717;15227;4;1401;1358;613;589;27;7;2241;12353;4;2359;488;24;8;1791;12260;4;1880;382;19;9;1196;6692;4;1281;547;23
07.03.20;14:50:00;1;635;7562;0;2;2182;10094;4;2307;411;30;3;1363;6400;4;1460;548;26;4;1899;9076;5;1978;246;25;5;3943;20176;4;2130;1744;430;700;30;6;2981;15005;4;1533;1502;610;592;27;7;2340;12169;4;2470;483;24;8;2290;12075;4;2410;480;24;9;1248;6594;4;1336;534;23
07.03.20;14:45:00;1;664;7509;0;2;2755;9917;4;2910;404;30;3;1554;6290;4;1654;504;26;4;2348;8922;5;2446;245;25;5;4800;19848;4;2609;2135;436;698;30;6;3773;14757;4;1942;1902;616;591;27;7;3324;11983;4;3488;489;24;8;3145;11891;4;3293;476;24;9;1739;6495;4;1848;541;24
07.03.20;14:40:00;1;565;7455;0;2;3027;9693;4;3189;404;31;3;1865;6161;4;1975;488;26;4;2773;8729;5;2888;243;25;5;5742;19454;4;3167;2549;426;697;29;6;4243;14456;4;2180;2098;619;598;27;7;3919;11712;4;4111;488;24;8;3421;11632;4;3583;483;23;9;2193;6350;4;2319;533;24
07.03.20;14:35:00;1;575;7407;0;2;4413;9444;4;4648;418;29;3;2708;6008;4;2861;519;26;4;3943;8501;5;4107;243;23;5;7879;18979;4;4343;3525;437;711;29;6;6052;14100;4;3155;3040;614;593;26;7;5104;11387;4;5348;484;23;8;5243;11348;4;5497;480;23;9;2871;6169;4;3037;536;23
07.03.20;14:30:00;1;544;7359;0;2;2952;9080;4;3114;432;26;3;1914;5784;4;2029;529;24;4;2641;8176;5;2751;253;22;5;5422;18348;4;2973;2408;438;713;29;6;4138;13614;4;2133;2056;613;606;26;7;3557;10961;4;3721;493;23;8;3526;10916;4;3694;472;22;9;1995;5930;4;2111;529;21